Location: アルンシュタイン
(50.0000°N, 10.0000°E)
Time: 18:12:35
(UTC+02:00)

Transit 2A Rocket - Visible Passes

Search period start: 11 September 2024 00:00
Search period end: 21 September 2024 00:00
Orbit: 582 x 910 km, 66.7° (Epoch: 10 September)

Date Brightness Start Highest point End Pass type
(mag) Time Alt. Az. Time Alt. Az. Time Alt. Az.
11 Sep 7.3 01:11:53 19° ENE 01:11:53 19° ENE 01:13:55 10° NE visible
11 Sep 5.7 02:51:39 61° N 02:51:39 61° N 02:57:01 10° NE visible
11 Sep 7.0 04:31:26 16° WNW 04:34:33 24° NNW 04:39:25 10° NNE visible
11 Sep 7.5 06:15:39 10° NW 06:19:17 16° N 06:22:52 10° NE visible
12 Sep 7.8 00:28:44 10° ENE 00:28:44 10° ENE 00:28:50 10° ENE visible
12 Sep 6.2 02:08:30 46° NE 02:08:30 46° NE 02:12:40 10° NE visible
12 Sep 6.6 03:48:17 27° WNW 03:49:46 30° NNW 03:55:06 10° NNE visible
12 Sep 7.5 05:30:28 10° NW 05:34:15 17° N 05:38:01 10° NNE visible
13 Sep 6.9 01:25:20 28° NE 01:25:20 28° NE 01:28:14 10° NE visible
13 Sep 6.2 03:05:06 41° NW 03:05:06 41° NW 03:10:49 10° NNE visible
13 Sep 7.4 04:45:06 10° WNW 04:49:16 19° NNW 04:53:24 10° NNE visible
14 Sep 7.4 00:42:08 17° ENE 00:42:08 17° ENE 00:43:38 10° NE visible
14 Sep 6.2 02:21:54 46° N 02:21:54 46° N 02:26:32 10° NNE visible
14 Sep 7.1 04:01:40 17° WNW 04:04:19 22° NNW 04:08:57 10° NNE visible
14 Sep 7.6 05:45:30 10° NW 05:49:07 16° N 05:52:41 10° NE visible
15 Sep 6.6 01:38:41 37° NNE 01:38:41 37° NNE 01:42:12 10° NE visible
15 Sep 6.8 03:18:27 26° NW 03:19:29 27° NNW 03:24:36 10° NNE visible
15 Sep 7.6 05:00:23 10° NW 05:04:04 16° N 05:07:42 10° NNE visible
16 Sep 7.1 00:55:25 25° NE 00:55:25 25° NE 00:57:48 10° NE visible
16 Sep 6.5 02:35:12 35° NNW 02:35:12 35° NNW 02:40:17 10° NNE visible
16 Sep 7.5 04:15:03 10° NW 04:19:02 18° NNW 04:22:58 10° NNE visible
16 Sep 7.6 05:59:58 10° NNW 06:03:55 18° NNE 06:07:45 10° NE visible
17 Sep 7.5 00:12:10 15° NE 00:12:10 15° NE 00:13:15 10° NE visible
17 Sep 6.6 01:51:56 37° N 01:51:56 37° N 01:55:59 10° NNE visible
17 Sep 7.3 03:31:42 17° NW 03:34:03 20° NNW 03:38:27 10° NNE visible
17 Sep 7.7 05:15:14 10° NNW 05:18:53 16° N 05:22:28 10° NE visible
18 Sep 6.9 01:08:38 30° NNE 01:08:38 30° NNE 01:11:39 10° NE visible
18 Sep 7.0 02:48:24 24° NW 02:49:08 25° NNW 02:54:02 10° NNE visible
18 Sep 7.7 04:30:13 10° NW 04:33:49 16° N 04:37:22 10° NE visible
18 Sep 7.4 06:14:01 10° NNW 06:18:36 22° NNE 06:22:58 10° ENE visible
19 Sep 7.3 00:25:20 21° NE 00:25:20 21° NE 00:27:16 10° NE visible
19 Sep 6.9 02:05:05 31° NNW 02:05:05 31° NNW 02:09:42 10° NNE visible
19 Sep 7.6 03:44:57 10° NW 03:48:45 17° N 03:52:31 10° NNE visible
19 Sep 7.6 05:29:32 10° NNW 05:33:38 18° NNE 05:37:36 10° ENE visible
19 Sep 7.6 23:42:00 14° NE 23:42:00 14° NE 23:42:46 10° NE visible
20 Sep 6.9 01:21:45 32° N 01:21:45 32° N 01:25:22 10° NNE visible
20 Sep 7.4 03:01:31 16° NW 03:03:44 19° NNW 03:07:54 10° NNE visible
20 Sep 7.7 04:44:52 10° NNW 04:48:36 16° N 04:52:13 10° NE visible
20 Sep 7.0 06:27:50 10° NNW 06:33:03 31° NNE 06:37:58 10° E visible
